This is the latest recevied weather packets stored in our database for station/object W0AVQ. If no packets are shown the sender has not sent any weather packets the latest 10 day(s).
| Time | Temp. | Humidity | Pressure | Rain* | Wind** | Luminosity | Snow |
|---|---|---|---|---|---|---|---|
| 1777668717 | 17.78° C | 38% | 1017.8 hPa | 0 mm | - | 85 W/m² | - |
| 1777668414 | 17.78° C | 39% | 1018.1 hPa | 0 mm | - | 69 W/m² | - |
| 1777668110 | 17.78° C | 39% | 1018.3 hPa | 0 mm | - | 62 W/m² | - |
| 1777667807 | 17.78° C | 42% | 1018.5 hPa | 0 mm | - | 65 W/m² | - |
| 1777667505 | 17.22° C | 39% | 1018.5 hPa | 0 mm | - | 60 W/m² | - |
| 1777667201 | 17.78° C | 40% | 1018.5 hPa | 0 mm | - | 59 W/m² | - |
| 1777666898 | 17.78° C | 38% | 1018.4 hPa | 0 mm | - | 61 W/m² | - |
| 1777666595 | 18.89° C | 40% | 1018.6 hPa | 0 mm | - | 68 W/m² | - |
| 1777666292 | 17.78° C | 41% | 1018.7 hPa | 0 mm | - | 68 W/m² | - |
| 1777665989 | 17.78° C | 40% | 1018.9 hPa | 0 mm | - | 75 W/m² | - |
| 1777665687 | 18.33° C | 41% | 1019.1 hPa | 0 mm | - | 79 W/m² | - |
| 1777665384 | 18.33° C | 41% | 1018.8 hPa | 0 mm | - | 77 W/m² | - |
| 1777665079 | 17.78° C | 43% | 1019.2 hPa | 0 mm | - | 82 W/m² | - |
| 1777664775 | 17.78° C | 39% | 1019 hPa | 0 mm | - | 88 W/m² | - |
| 1777664471 | 17.78° C | 41% | 1019.1 hPa | 0 mm | - | 104 W/m² | - |
| 1777664168 | 18.33° C | 39% | 1019.3 hPa | 0 mm | - | 180 W/m² | - |
| 1777663867 | 17.78° C | 42% | 1019.4 hPa | 0 mm | - | 419 W/m² | - |
| 1777663563 | 17.78° C | 41% | 1019.4 hPa | 0 mm | - | 543 W/m² | - |
| 1777663261 | 17.78° C | 40% | 1019.4 hPa | 0 mm | - | 516 W/m² | - |
| 1777662958 | 17.78° C | 43% | 1019.5 hPa | 0 mm | - | 345 W/m² | - |
| 1777662655 | 17.78° C | 41% | 1019.5 hPa | 0 mm | - | 101 W/m² | - |
| 1777662351 | 17.78° C | 43% | 1019.4 hPa | 0 mm | - | 78 W/m² | - |
| 1777662046 | 18.33° C | 42% | 1019.5 hPa | 0 mm | - | 64 W/m² | - |
| 1777661743 | 17.78° C | 44% | 1019.7 hPa | 0 mm | - | 66 W/m² | - |
| 1777661439 | 17.78° C | 43% | 1019.8 hPa | 0 mm | - | 62 W/m² | - |
* Rain latest hour (hover to see other rain measurements)
** Current wind speed in m/s (hover to see current wind gust speed)